• In Belarus
  • List of Countries
  • For 7 days
  • Water Temperature
  • Satellite Maps
  • Weather Map
  • Weather Widgets
  • user-avatar
    Login

    Hourly Weather Jaczew

    Today, 21 September, Friday

    Time Temperature Precipitation Wind Pressure Humidity
    00:00 +19°C° 0 mm 2 mps 753 mmHg 63%
    01:00 +19°C° 0 mm 2 mps 753 mmHg 64%
    02:00 +18°C° 0 mm 3 mps 752 mmHg 64%
    03:00 +18°C° 0 mm 3 mps 752 mmHg 65%
    04:00 +17°C° 0 mm 3 mps 752 mmHg 65%
    05:00 +18°C° 0 mm 3 mps 752 mmHg 64%
    06:00 +19°C° 0 mm 3 mps 752 mmHg 62%
    07:00 +19°C° 0 mm 3 mps 752 mmHg 60%
    08:00 +21°C° 0 mm 4 mps 752 mmHg 55%
    09:00 +23°C° 0 mm 4 mps 751 mmHg 49%
    10:00 +26°C° 0 mm 5 mps 751 mmHg 44%
    11:00 +27°C° 0 mm 5 mps 751 mmHg 41%
    12:00 +28°C° 0 mm 5 mps 750 mmHg 39%
    13:00 +29°C° 0 mm 6 mps 749 mmHg 37%
    14:00 +28°C° 0 mm 5 mps 749 mmHg 38%
    15:00 +28°C° 0 mm 5 mps 748 mmHg 40%
    16:00 +27°C° 0 mm 5 mps 748 mmHg 42%
    17:00 +26°C° 0 mm 5 mps 747 mmHg 46%
    18:00 +23°C° 0 mm 5 mps 747 mmHg 50%
    19:00 +22°C° 0 mm 5 mps 747 mmHg 54%
    20:00 +22°C° 0 mm 5 mps 746 mmHg 55%
    21:00 +22°C° 0 mm 6 mps 746 mmHg 55%
    22:00 +21°C° 0 mm 6 mps 746 mmHg 55%
    23:00 +20°C° 0.1 mm 6 mps 746 mmHg 60%

    Tomorrow, 22 September, Saturday

    Time Temperature Precipitation Wind Pressure Humidity
    00:00 +20°C° 0.1 mm 6 mps 747 mmHg 64%
    01:00 +19°C° 0.1 mm 6 mps 747 mmHg 68%
    02:00 +16°C° 0.5 mm 6 mps 748 mmHg 72%
    03:00 +14°C° 0.5 mm 6 mps 749 mmHg 76%
    04:00 +12°C° 0.5 mm 5 mps 750 mmHg 80%
    05:00 +12°C° 0.2 mm 5 mps 750 mmHg 80%
    06:00 +12°C° 0.2 mm 4 mps 751 mmHg 80%
    07:00 +12°C° 0.2 mm 4 mps 752 mmHg 80%
    08:00 +13°C° 0 mm 4 mps 752 mmHg 74%
    09:00 +13°C° 0 mm 5 mps 752 mmHg 68%
    10:00 +14°C° 0 mm 5 mps 752 mmHg 62%
    11:00 +15°C° 0 mm 5 mps 752 mmHg 58%
    12:00 +15°C° 0 mm 5 mps 752 mmHg 53%
    13:00 +16°C° 0 mm 5 mps 752 mmHg 48%
    14:00 +16°C° 0.3 mm 5 mps 751 mmHg 51%
    15:00 +16°C° 0.3 mm 5 mps 751 mmHg 53%
    16:00 +15°C° 0.3 mm 5 mps 751 mmHg 55%
    17:00 +14°C° 0.1 mm 4 mps 751 mmHg 60%
    18:00 +13°C° 0.1 mm 4 mps 751 mmHg 64%
    19:00 +11°C° 0.1 mm 3 mps 751 mmHg 69%
    20:00 +11°C° 0 mm 4 mps 751 mmHg 70%
    21:00 +11°C° 0 mm 4 mps 752 mmHg 72%
    22:00 +10°C° 0 mm 4 mps 752 mmHg 73%
    23:00 +10°C° 0 mm 4 mps 752 mmHg 74%

    Day after tomorrow, 23 September, Sunday

    Time Temperature Precipitation Wind Pressure Humidity
    00:00 +10°C° 0 mm 4 mps 752 mmHg 75%
    01:00 +10°C° 0 mm 4 mps 752 mmHg 76%
    02:00 +8°C° 0 mm 4 mps 752 mmHg 77%
    03:00 +8°C° 0 mm 4 mps 752 mmHg 78%
    04:00 +8°C° 0 mm 4 mps 752 mmHg 79%
    05:00 +8°C° 0 mm 5 mps 752 mmHg 76%
    06:00 +9°C° 0 mm 5 mps 752 mmHg 74%
    07:00 +9°C° 0 mm 6 mps 752 mmHg 71%
    08:00 +11°C° 0 mm 6 mps 752 mmHg 65%
    09:00 +12°C° 0 mm 7 mps 752 mmHg 59%
    10:00 +14°C° 0 mm 7 mps 752 mmHg 53%
    11:00 +15°C° 0 mm 7 mps 752 mmHg 50%
    12:00 +16°C° 0 mm 7 mps 752 mmHg 46%
    13:00 +16°C° 0 mm 7 mps 751 mmHg 43%
    14:00 +16°C° 0 mm 6 mps 751 mmHg 42%
    15:00 +16°C° 0 mm 6 mps 751 mmHg 42%
    16:00 +15°C° 0 mm 5 mps 750 mmHg 42%
    17:00 +14°C° 0 mm 4 mps 750 mmHg 47%
    18:00 +13°C° 0 mm 3 mps 750 mmHg 51%
    19:00 +12°C° 0 mm 3 mps 750 mmHg 56%
    20:00 +13°C° 0.1 mm 2 mps 749 mmHg 62%
    21:00 +13°C° 0.1 mm 2 mps 748 mmHg 67%
    22:00 +12°C° 0.1 mm 2 mps 747 mmHg 73%
    23:00 +11°C° 1 mm 3 mps 746 mmHg 78%

    24 September, Monday

    Time Temperature Precipitation Wind Pressure Humidity
    00:00 +11°C° 1 mm 4 mps 744 mmHg 84%
    01:00 +10°C° 1 mm 4 mps 743 mmHg 89%
    02:00 +10°C° 3.9 mm 5 mps 741 mmHg 90%
    03:00 +10°C° 3.9 mm 6 mps 739 mmHg 92%
    04:00 +10°C° 3.9 mm 6 mps 737 mmHg 93%
    05:00 +11°C° 3 mm 7 mps 736 mmHg 92%
    06:00 +12°C° 3 mm 8 mps 734 mmHg 91%
    07:00 +13°C° 3 mm 9 mps 733 mmHg 90%
    08:00 +11°C° 1.2 mm 10 mps 733 mmHg 88%
    09:00 +9°C° 1.2 mm 12 mps 734 mmHg 87%
    10:00 +7°C° 1.2 mm 13 mps 735 mmHg 85%
    11:00 +8°C° 0.7 mm 12 mps 737 mmHg 82%
    12:00 +8°C° 0.7 mm 12 mps 739 mmHg 79%
    13:00 +8°C° 0.7 mm 11 mps 742 mmHg 75%
    14:00 +9°C° 0.2 mm 11 mps 743 mmHg 74%
    15:00 +9°C° 0.2 mm 10 mps 745 mmHg 73%
    16:00 +10°C° 0.2 mm 9 mps 746 mmHg 72%
    17:00 +8°C° 0.1 mm 9 mps 748 mmHg 74%
    18:00 +9°C° 0.1 mm 8 mps 749 mmHg 76%
    19:00 +7°C° 0.1 mm 8 mps 750 mmHg 79%
    20:00 +6°C° 0 mm 8 mps 751 mmHg 77%
    21:00 +6°C° 0 mm 8 mps 752 mmHg 76%
    22:00 +5°C° 0 mm 7 mps 753 mmHg 75%
    23:00 +5°C° 0 mm 7 mps 753 mmHg 74%

    25 September, Tuesday

    Time Temperature Precipitation Wind Pressure Humidity
    00:00 +5°C° 0 mm 7 mps 754 mmHg 74%
    01:00 +4°C° 0 mm 7 mps 754 mmHg 73%
    02:00 +4°C° 0 mm 7 mps 755 mmHg 73%
    03:00 +4°C° 0 mm 7 mps 755 mmHg 74%
    04:00 +4°C° 0 mm 7 mps 756 mmHg 74%
    05:00 +5°C° 0 mm 7 mps 757 mmHg 74%
    06:00 +5°C° 0 mm 7 mps 757 mmHg 74%
    07:00 +5°C° 0 mm 7 mps 758 mmHg 74%
    08:00 +7°C° 0.1 mm 8 mps 758 mmHg 69%
    09:00 +9°C° 0.1 mm 8 mps 759 mmHg 64%
    10:00 +10°C° 0.1 mm 8 mps 760 mmHg 58%
    11:00 +11°C° 0.2 mm 8 mps 760 mmHg 55%
    12:00 +11°C° 0.2 mm 8 mps 760 mmHg 51%
    13:00 +12°C° 0.2 mm 8 mps 760 mmHg 48%
    14:00 +12°C° 0 mm 7 mps 760 mmHg 47%
    15:00 +11°C° 0 mm 7 mps 760 mmHg 46%
    16:00 +11°C° 0 mm 6 mps 760 mmHg 46%
    17:00 +10°C° 0 mm 5 mps 760 mmHg 50%
    18:00 +9°C° 0 mm 5 mps 760 mmHg 54%
    19:00 +8°C° 0 mm 5 mps 760 mmHg 58%
    20:00 +8°C° 0.2 mm 5 mps 760 mmHg 62%
    21:00 +8°C° 0.2 mm 6 mps 759 mmHg 65%
    22:00 +8°C° 0.2 mm 7 mps 759 mmHg 69%
    23:00 +7°C° 1 mm 8 mps 758 mmHg 75%

    26 September, Wednesday

    Time Temperature Precipitation Wind Pressure Humidity
    00:00 +7°C° 1 mm 9 mps 757 mmHg 81%
    01:00 +7°C° 1 mm 9 mps 756 mmHg 87%
    02:00 +7°C° 0.9 mm 9 mps 756 mmHg 87%
    03:00 +9°C° 0.9 mm 8 mps 756 mmHg 87%
    04:00 +9°C° 0.9 mm 8 mps 756 mmHg 87%
    05:00 +8°C° 0.1 mm 7 mps 757 mmHg 85%
    06:00 +8°C° 0.1 mm 7 mps 758 mmHg 84%
    07:00 +7°C° 0.1 mm 6 mps 758 mmHg 82%
    08:00 +8°C° 0 mm 6 mps 759 mmHg 75%
    09:00 +10°C° 0 mm 6 mps 760 mmHg 67%
    10:00 +12°C° 0 mm 5 mps 760 mmHg 60%
    11:00 +13°C° 0 mm 5 mps 761 mmHg 56%
    12:00 +13°C° 0 mm 5 mps 761 mmHg 52%
    13:00 +14°C° 0 mm 4 mps 761 mmHg 49%
    14:00 +14°C° 0 mm 4 mps 761 mmHg 51%
    15:00 +14°C° 0 mm 3 mps 761 mmHg 54%
    16:00 +14°C° 0 mm 3 mps 761 mmHg 56%
    17:00 +13°C° 0 mm 2 mps 762 mmHg 62%
    18:00 +12°C° 0 mm 2 mps 762 mmHg 68%
    19:00 +10°C° 0 mm 2 mps 762 mmHg 73%
    20:00 +10°C° 0 mm 2 mps 762 mmHg 77%
    21:00 +10°C° 0 mm 2 mps 763 mmHg 81%
    22:00 +10°C° 0 mm 2 mps 763 mmHg 84%
    23:00 +9°C° 0 mm 2 mps 763 mmHg 87%
    Show more